{"data":{"norad_id":58829,"epoch":"2026-09-20T13:56:22.735680Z","epoch_age_seconds":145509,"freshness":"FRESH","line1":"1 58829U 24017D   26263.58081870  .00000733  00000+0  32826-4 0  9999","line2":"2 58829  53.1627  17.0396 0001614  26.6876 333.4210 15.34395754149928","mean_motion":15.34395754,"eccentricity":0.0001614,"inclination_deg":53.1627,"raan_deg":17.0396,"arg_perigee_deg":26.6876,"mean_anomaly_deg":333.421,"bstar":3.2826e-5,"rev_number":14992,"period_min":93.848017778078,"perigee_km":461.61174659137,"apogee_km":463.81997389466,"semimajor_km":6840.852860243,"source":"CELESTRAK","updated_at":"2026-09-21T09:00:33.983293Z"}}